655  
ASUS41 KBGM 292010  
RWRBGM  
 
REGIONAL WEATHER ROUNDUP  
NATIONAL WEATHER SERVICE BINGHAMTON NY  
400 PM EDT MON MAY 29 2017  
 
NOTE: "FAIR" INDICATES FEW OR NO CLOUDS BELOW 12,000 FEET WITH NO  
SIGNIFICANT WEATHER AND/OR S TO VISIBILITY
.  
 
* = STATION(S) THAT DOES NOT REPORT PRECIPITATION, SUCH AS RAIN,  
SNOW, ETC, ALSO NO THUNDER OR FOG.
 
 
NYZ009-015>018-022>025-036-037-044>046-055>057-062-292100   
..CENTRAL NEW YORK
 
 
 
CITY SKY/WX TMP DP RH WIND PRES REMARKS
 
BINGHAMTON PTSUNNY 61 56 83 S8 29.91S  
CORTLAND FAIR 64 61 88 SE5 29.89F  
DANSVILLE MOSUNNY 76 49 38 VRB5 29.84R  
ELMIRA PTSUNNY 75 57 53 CALM 29.84S HAZE  
SENECA FALLS PTCLDY 73 63 68 S8 29.84S  
ITHACA PTSUNNY 70 62 76 S9 29.88F  
HAMILTON CLOUDY 63 55 77 S9G16 29.91S  
HORNELL MOSUNNY 75 46 35 W12G21 29.89S  
MONTICELLO CLOUDY 54 52 94 SE7 30.00S  
NORWICH PTSUNNY 63 55 77 S8 29.93S  
ONEONTA MOSUNNY 59 N/A N/A SW5 29.94S  
PENN YAN MOSUNNY 77 51 40 VRB7 29.85R  
ROME CLOUDY 61 58 90 E12 29.91S  
SIDNEY CLOUDY 61 57 88 SW8 29.94R  
SYRACUSE PTSUNNY 69 59 70 SE10 29.84S  

 
 
PAZ038>040-043-044-047-048-072-292100   
..NORTHEAST PENNSYLVANIA
 
 
 
CITY SKY/WX TMP DP RH WIND PRES REMARKS
 
HAZLETON CLOUDY 59 55 88 SE5 30.00S  
SCRANTON CLOUDY 62 56 80 VRB6 29.94S  

 

 
KEY  
WCI = WIND CHILL INDEX  
VSB = VISIBILITY  
HX = HEAT INDEX  

 
 
 
CLICK HERE TO GO TO PREVIOUS BULLETINS.

The Nexlab NY Page
The Nexlab PA Page Main Text Page